Starlink 11571

operational
NORAD ID: 62986 Int'l Des: 2025-031 Owner: SPXS Country: US Constellation: starlink
LEOCIRCULAR

Starlink 11571について

説明を読み込み中...

リアルタイム位置

3D地球を読み込み中...

次回通過

高度履歴

Altitude vs Time

uPlot chart will show altitude changes over time

軌道要素

1 62986U 25031F 25306.50002315 -.00071345 00000-0 -55680-3 0 9993
2 62986 42.9999 47.7048 0001495 262.1699 89.3833 15.70860544 5985
Epoch: Nov 2, 2025 • Age: 8 hours

現在のステータス

高度 357.3 km
速度 7.70 km/s
衛星直下点 26.99°N, 153.42°W
打ち上げ日 Feb 11, 2025
運用期間 0.7 years
タイプ internet

技術仕様

分類 Payload
質量 960.00 kg
乾燥質量 910.00 kg
総質量 960.00 kg
長さ 0.30 m
直径 4.10 m
スパン 29.00 m
形状 Box + pan
製造者 SPXS
バスタイプ Starlink V2MD
フェーズステータス In Orbit
所有者/国 SPXS/US

大規模コンステレーション

Loading constellations...